Flag for Botswana Weather past 2 weeks in Francistown, Botswana

Now
68 °F

Clear.


Feels Like: 68 °F
Forecast: 36 / 80 °F
Wind: 5 mph from Southeast

Location: Francistown Airport

Current Time: Jul 24, 2014 at 8:13:32 PM

Latest Report: Jul 24, 2014 at 7:00 PM


Visibility: 10 mi

Pressure: 30.15 "Hg

Humidity: 23%

Dew point: 28 °F

Location of FrancistownLocation

Historic Weather in Francistown — Graph

°F

Francistown temperature yesterday

Maximum temperature yesterday: 75 °F (at 3:00 PM)
Minimum temperature yesterday: 30 °F (at 7:00 AM)
Average temperature yesterday: 55 °F

Past Weeks' High & Low Weather Summary

 TemperatureHumidityPressure
High82 °F (Jul 19, 2:00 PM)100% (Jul 21, 4:00 AM)30.48 "Hg (Jul 21, 4:00 AM)
Low28 °F (Jul 11, 7:00 AM)13% (Jul 13, 5:00 PM)30.04 "Hg (Jul 18, 3:00 PM)
Average55 °F51%30.28 "Hg
* Reported Jul 9 7:00 PM — Jul 24 7:00 PM, Francistown, Weather by CustomWeather, © 2014

Note: Actual official high and low records may vary slightly from our data, if they occured in-between our weather recording intervals... More about our weather records

Advertising

Francistown weather history for previous 24 hours

 ConditionsComfort  
Time TempWeatherWind HumidityBarometerVisibility
7:00 PM
Jul 24
68 °FClear.5 mph23%30.15 "Hg10 mi
6:00 PM68 °FClear.5 mph23%30.15 "Hg10 mi
5:00 PM77 °FClear.8 mph17%30.12 "Hg10 mi
4:00 PM79 °FSunny.6 mph15%30.15 "Hg10 mi
3:00 PM77 °FSunny.3 mph18%30.15 "Hg10 mi
2:00 PM77 °FSunny.1 mph18%30.15 "Hg10 mi
1:00 PM75 °FSunny.6 mph18%30.21 "Hg10 mi
12:00 PM73 °FPassing clouds.7 mph22%30.24 "HgN/A
11:00 AM72 °FSunny.6 mph27%30.27 "Hg10 mi
10:00 AM68 °FPassing clouds.6 mph33%30.30 "HgN/A
9:00 AM61 °FPassing clouds.5 mph39%30.27 "HgN/A
8:00 AM43 °FSunny.1 mph61%30.24 "Hg10 mi
7:00 AM30 °FSunny.1 mph80%30.24 "Hg10 mi
6:00 AM32 °FSunny.1 mph80%30.24 "Hg10 mi
5:00 AM34 °FClear.3 mph87%30.21 "Hg10 mi
4:00 AM36 °FClear.3 mph65%30.21 "Hg10 mi
2:00 AM36 °FClear.3 mph70%30.24 "Hg10 mi
1:00 AM39 °FClear.5 mph65%30.24 "Hg10 mi
12:00 AM37 °FClear.3 mph60%30.24 "Hg10 mi
11:00 PM
Jul 23
41 °FClear.5 mph57%30.27 "Hg10 mi
10:00 PM45 °FClear.1 mph61%30.24 "Hg10 mi
9:00 PM46 °FClear.1 mph50%30.27 "Hg10 mi
8:00 PM48 °FClear.1 mph50%30.24 "Hg10 mi
Weather by CustomWeather, © 2014

See weather overviewHow to use our weather pages